FW9470 Weather Reports


time (UTC)temp
C
wind
direction
speed
KPH
gust
KPH
rain 1hr
cm
rain 24hr
cm
rain mn
cm
humidity
%
barometer
mb
20260906071537 21 0 0.0 0.0 0.00 0.00 0.00 98 1011.0
20260906070041 21 0 0.0 0.0 0.00 0.00 0.00 98 1011.1
20260906064616 21 0 0.0 0.0 0.00 0.00 0.00 98 1011.0
20260906063037 21 0 0.0 0.0 0.00 0.00 0.00 98 1011.4
20260906061540 21 0 0.0 0.0 0.00 0.00 0.00 98 1011.8
20260906060036 21 0 0.0 0.0 0.00 0.00 0.00 98 1011.7
20260906054540 21 0 0.0 0.0 0.00 0.00 0.00 98 1012.0
20260906053038 21 0 0.0 0.0 0.00 0.00 0.00 98 1011.9
20260906051537 21 0 0.0 0.0 0.00 0.00 0.00 98 1012.2
20260906050038 21 0 0.0 0.0 0.00 0.00 0.00 98 1012.2
20260906044543 21 0 0.0 0.0 0.00 0.00 0.00 98 1012.3
20260906043044 21 0 0.0 0.0 0.00 0.00 0.00 98 1011.9
20260906041538 21 0 0.0 0.0 0.00 0.00 0.00 98 1012.1
20260906040039 21 0 0.0 0.0 0.00 0.00 0.00 98 1012.4
20260906034544 21 0 0.0 0.0 0.00 0.00 0.00 98 1012.3
20260906033035 21 0 0.0 0.0 0.00 0.00 0.00 97 1012.5
20260906031546 21 0 0.0 0.0 0.00 0.00 0.00 98 1012.6
20260906030037 21 0 0.0 0.0 0.00 0.00 0.00 98 1012.2
20260906024540 21 0 0.0 0.0 0.00 0.00 0.00 97 1011.9
20260906023042 22 0 0.0 0.0 0.00 0.00 0.00 97 1012.1
20260906021537 22 0 0.0 0.0 0.00 0.00 0.00 97 1012.3
20260906020050 22 0 0.0 0.0 0.00 0.00 0.00 97 1012.3
20260906014546 22 0 0.0 0.0 0.00 0.00 0.00 97 1012.1
20260906013039 22 0 0.0 0.0 0.00 0.00 0.00 97 1012.1
20260906011535 22 0 0.0 0.0 0.00 0.00 0.00 97 1012.0
20260906010039 22 0 0.0 0.0 0.00 0.00 0.00 97 1011.9
20260906004537 22 0 0.0 1.6 0.00 0.00 0.00 97 1011.3
20260906003044 22 0 0.0 0.0 0.00 0.00 0.00 97 1011.2
20260906001539 23 0 0.0 1.6 0.00 0.00 0.00 96 1011.3
20260906000039 23 0 0.0 3.2 0.00 0.00 0.00 96 1011.6
20260905234541 23 0 0.0 1.6 0.00 0.00 0.00 96 1011.3
20260905233042 23 0 0.0 3.2 0.00 0.00 0.00 96 1011.0
20260905231541 23 276 0.0 3.2 0.00 0.00 0.00 95 1011.0
20260905230039 23 207 1.6 4.8 0.00 0.00 0.00 95 1010.7
20260905224537 24 0 0.0 1.6 0.00 0.00 0.00 95 1011.3
20260905223040 24 0 0.0 3.2 0.00 0.00 0.00 94 1011.0
20260905221545 24 0 1.6 4.8 0.00 0.00 0.00 94 1011.1
20260905220038 23 0 0.0 1.6 0.00 0.00 0.00 94 1010.9
20260905214536 24 352 0.0 1.6 0.00 0.00 0.00 95 1011.0
20260905213037 24 0 0.0 1.6 0.00 0.00 0.00 94 1011.5
20260905211544 23 0 0.0 6.4 0.00 0.00 0.00 94 1011.3
20260905210055 23 0 0.0 4.8 0.00 0.00 0.00 94 1011.5
20260905204535 23 0 0.0 3.2 0.00 0.00 0.00 95 1011.5
20260905203041 23 11 0.0 3.2 0.00 0.00 0.00 95 1011.6
20260905201538 22 12 1.6 9.7 0.00 0.00 0.00 96 1011.6
20260905200052 22 0 0.0 3.2 0.00 0.00 0.00 96 1012.1
20260905194538 21 0 1.6 4.8 0.00 0.00 0.00 94 1012.5
20260905193039 22 126 0.0 53.1 0.00 0.00 0.00 89 1013.5
20260905191541 25 360 16.1 43.5 0.00 0.00 0.00 77 1013.4
20260905190037 30 318 11.3 30.6 0.00 0.00 0.00 67 1012.5
20260905184537 34 103 0.0 6.4 0.00 0.00 0.00 55 1010.7
20260905183040 36 0 1.6 4.8 0.00 0.00 0.00 52 1010.8
20260905181537 36 146 1.6 9.7 0.00 0.00 0.00 50 1011.0
20260905180038 36 52 0.0 4.8 0.00 0.00 0.00 48 1011.4
20260905174538 36 33 3.2 9.7 0.00 0.00 0.00 50 1011.8
20260905173039 35 169 1.6 8.0 0.00 0.00 0.00 52 1011.8
20260905171554 35 282 1.6 6.4 0.00 0.00 0.00 54 1012.0
20260905170038 35 0 1.6 9.7 0.00 0.00 0.00 56 1012.3
20260905164540 34 314 3.2 8.0 0.00 0.00 0.00 57 1012.7
20260905163036 34 213 1.6 8.0 0.00 0.00 0.00 58 1012.9
20260905161541 33 0 0.0 8.0 0.00 0.00 0.00 64 1013.0
20260905160044 33 177 3.2 9.7 0.00 0.00 0.00 63 1013.1
20260905154550 32 181 1.6 6.4 0.00 0.00 0.00 65 1013.1
20260905153034 32 338 1.6 8.0 0.00 0.00 0.00 66 1013.3
20260905151537 31 0 1.6 6.4 0.00 0.00 0.00 71 1013.5
20260905150037 31 291 3.2 6.4 0.00 0.00 0.00 73 1013.6
20260905144548 30 233 3.2 8.0 0.00 0.00 0.00 75 1013.6
20260905143038 30 229 3.2 9.7 0.00 0.00 0.00 76 1013.6
20260905141537 28 211 3.2 8.0 0.00 0.00 0.00 79 1013.9
20260905140040 28 246 1.6 6.4 0.00 0.00 0.00 82 1014.0
20260905134543 27 0 0.0 4.8 0.00 0.00 0.00 85 1014.2
20260905133037 26 294 1.6 4.8 0.00 0.00 0.00 87 1014.3
20260905131535 26 215 1.6 6.4 0.00 0.00 0.00 88 1014.1
20260905130035 25 209 1.6 6.4 0.00 0.00 0.00 92 1014.0
20260905124545 23 0 0.0 0.0 0.00 0.00 0.00 96 1014.2
20260905123036 22 0 0.0 0.0 0.00 0.00 0.00 97 1013.8
20260905121537 22 0 0.0 0.0 0.00 0.00 0.00 97 1014.0
20260905120037 21 0 0.0 0.0 0.00 0.00 0.00 97 1013.8
20260905114538 21 0 0.0 0.0 0.00 0.00 0.00 97 1013.8
20260905113036 21 0 0.0 0.0 0.00 0.00 0.00 97 1013.6
20260905111540 21 0 0.0 0.0 0.00 0.00 0.00 97 1013.3
20260905110038 21 0 0.0 0.0 0.00 0.00 0.00 97 1013.2
20260905104544 21 0 0.0 0.0 0.00 0.00 0.00 97 1013.0
20260905103037 21 0 0.0 0.0 0.00 0.00 0.00 97 1012.9
20260905101541 21 0 0.0 0.0 0.00 0.00 0.00 97 1012.8
20260905100038 21 0 0.0 0.0 0.00 0.00 0.00 96 1012.8
20260905094551 21 0 0.0 0.0 0.00 0.00 0.00 96 1012.7
20260905093044 21 0 0.0 0.0 0.00 0.00 0.00 96 1012.9
20260905091537 21 0 0.0 0.0 0.00 0.00 0.00 96 1012.8
20260905090037 21 0 0.0 0.0 0.00 0.00 0.00 96 1012.9
20260905084541 22 0 0.0 0.0 0.00 0.00 0.00 96 1013.0
20260905083036 22 0 0.0 0.0 0.00 0.00 0.00 96 1013.1
20260905081538 22 0 0.0 0.0 0.00 0.00 0.00 96 1013.1
20260905080050 22 0 0.0 0.0 0.00 0.00 0.00 96 1013.4
20260905074535 22 0 0.0 0.0 0.00 0.00 0.00 95 1013.3
20260905073046 22 0 0.0 0.0 0.00 0.00 0.00 95 1013.2